Home > Weather > Watford > Past weeks

Flag for United Kingdom Weather for the Past 2 Weeks in Watford, England, United Kingdom

Now
41 °F

Partly cloudy.


Feels Like: 34 °F
Forecast: 35 / 52 °F
Wind: 13 mph from West

Location: Northolt

Current Time: Apr 29, 2016 at 7:10:28 AM

Latest Report: Apr 29, 2016 at 5:50 AM


Visibility: N/A

Pressure: 29.80 "Hg

Humidity: 70%

Dew Point: 32 °F

Location of WatfordLocation

Historic Weather in Watford — Graph

°F

Watford Temperature Yesterday

Maximum temperature yesterday: 54 °F (at 1:50 PM)
Minimum temperature yesterday: 32 °F (at 4:50 AM)
Average temperature yesterday: 44 °F

High & Low Weather Summary for the Past Weeks

 TemperatureHumidityPressure
High63 °F (Apr 14, 3:50 PM)100% (Apr 28, 4:50 AM)30.45 "Hg (Apr 28, 4:50 AM)
Low32 °F (Apr 17, 4:50 AM)30% (Apr 27, 3:50 PM)29.42 "Hg (Apr 15, 6:50 PM)
Average46 °F68%29.99 "Hg
* Reported Apr 14 4:50 AM — Apr 29 4:50 AM, Watford, Weather by CustomWeather, © 2016

Note: Actual official high and low records may vary slightly from our data, if they occured in-between our weather recording intervals... More about our weather records

Advertising

Watford Weather History for the Previous 24 Hours

Scroll right to see more
 ConditionsComfort  
Time TempWeatherWind HumidityBarometerVisibility
4:50 AM
Fri, Apr 29
41 °FPassing clouds.10 mph76%29.77 "HgN/A
3:50 AM43 °FPassing clouds.10 mph71%29.77 "HgN/A
2:50 AM43 °FOvercast.9 mph87%29.77 "HgN/A
1:50 AM43 °FPassing clouds.12 mph81%29.77 "HgN/A
12:50 AM45 °FPassing clouds.17 mph76%29.77 "HgN/A
11:50 PM
Thu, Apr 28
45 °FPassing clouds.13 mph87%29.77 "HgN/A
10:50 PM46 °FPassing clouds.14 mph76%29.77 "HgN/A
9:50 PM46 °FPassing clouds.13 mph76%29.80 "HgN/A
8:50 PM48 °FBroken clouds.14 mph62%29.80 "HgN/A
7:50 PM50 °FPartly sunny.16 mph58%29.80 "HgN/A
6:50 PM50 °FPartly sunny.15 mph54%29.83 "HgN/A
5:50 PM52 °FBroken clouds.17 mph50%29.83 "HgN/A
4:50 PM52 °FPartly sunny.16 mph47%29.86 "HgN/A
3:50 PM52 °FSunny.14 mph38%29.86 "Hg10 mi
2:50 PM54 °FSunny.16 mph33%29.89 "Hg10 mi
1:50 PM54 °FSunny.16 mph33%29.92 "Hg10 mi
12:50 PM52 °FScattered clouds.14 mph38%29.92 "HgN/A
11:50 AM48 °FScattered clouds.10 mph43%29.95 "HgN/A
10:50 AM46 °FScattered clouds.9 mph46%29.95 "HgN/A
9:50 AM45 °FPassing clouds.10 mph53%29.98 "HgN/A
8:50 AM41 °FSunny.5 mph70%29.98 "Hg10 mi
7:50 AM37 °FSunny.6 mph87%29.98 "Hg10 mi
Weather by CustomWeather, © 2016

See weather overviewHow to use our weather pages